Torna al catalogo

STARLINK-3052

AttivoComunicazioniVLEO
NORAD 49165·PAYLOAD·🇺🇸 United States

Lanciato Sep 14, 2021 da Vandenberg Space Force Base

Loading…

Prossimi Passaggi (prossime 24 ore)

TLE

AggiornatoSource: CelesTrak SupGP

Epoca: Sep 14, 2026, 14:19 UTC

1 49165C 21082AM  26257.59701389  .00637480  00000+0  49326-1 0  2571
2 49165  70.0004 178.1541 0003068 270.1074  69.2084 15.01072155    10

Traccia STARLINK-3052 in tempo reale con AllMySat

Download on the App Store